Location: New Frontier Mobile Home Park
(32.8448°N, 116.9675°W)
Time: 22:57:26
(UTC+00:00)

Lacrosse 5 rocket - Pass Details

Date: 14 July 2020
Orbit: 464 x 632 km, 57.0° (Epoch: 05 August)

Event Time Altitude Azimuth Distance (km) Brightness Sun altitude
Rises 06:09:29 0° 336° (NNW) 2,684 6.0 -30.1°
Reaches altitude 10° 06:12:19 10° 355° (N) 1,754 4.6 -30.4°
Enters shadow 06:13:49 16° 16° (NNE) 1,408 3.8 -30.6°
